Time,TemperatureF,DewpointF,PressureIn,WindDirection,WindDirectionDegrees,WindSpeedMPH,WindSpeedGustMPH,Humidity,HourlyPrecipIn,Conditions,Clouds,dailyrainin,SoftwareType,DateUTC
2013-04-16 00:03:00,54.0,53.0,29.84,South,178,0.0,-999.0,96,-99.99,,,-99.99,,2013-04-16 04:03:00,
2013-04-16 00:12:00,54.0,53.0,29.84,South,178,0.0,-999.0,96,-99.99,,,-99.99,,2013-04-16 04:12:00,
2013-04-16 00:23:00,54.0,53.0,29.83,SW,221,0.0,-999.0,96,-99.99,,,-99.99,,2013-04-16 04:23:00,
2013-04-16 00:33:00,53.0,52.0,29.84,WSW,254,3.0,-999.0,95,-99.99,,,-99.99,,2013-04-16 04:33:00,
2013-04-16 00:42:00,53.0,52.0,29.84,WSW,254,3.0,-999.0,95,-99.99,,,-99.99,,2013-04-16 04:42:00,
2013-04-16 00:52:00,53.0,52.0,29.84,WSW,256,2.0,-999.0,95,-99.99,,,-99.99,,2013-04-16 04:52:00,
2013-04-16 01:03:00,53.0,51.0,29.83,WSW,251,4.0,-999.0,94,-99.99,,,-99.99,,2013-04-16 05:03:00,
2013-04-16 01:12:00,53.0,51.0,29.83,WSW,251,4.0,-999.0,94,-99.99,,,-99.99,,2013-04-16 05:12:00,
2013-04-16 01:22:00,52.0,51.0,29.83,West,267,3.0,-999.0,95,-99.99,,,-99.99,,2013-04-16 05:22:00,
2013-04-16 01:32:00,52.0,51.0,29.84,West,269,5.0,-999.0,95,-99.99,,,-99.99,,2013-04-16 05:32:00,
2013-04-16 01:42:00,52.0,51.0,29.84,West,269,5.0,-999.0,95,-99.99,,,-99.99,,2013-04-16 05:42:00,
2013-04-16 01:52:00,50.0,49.0,29.84,West,274,7.0,-999.0,95,-99.99,,,-99.99,,2013-04-16 05:52:00,
2013-04-16 02:02:00,50.0,49.0,29.85,West,273,6.0,-999.0,95,-99.99,,,-99.99,,2013-04-16 06:02:00,
2013-04-16 02:12:00,50.0,49.0,29.85,West,273,6.0,-999.0,95,-99.99,,,-99.99,,2013-04-16 06:12:00,
2013-04-16 02:22:00,50.0,49.0,29.84,WSW,258,4.0,-999.0,96,-99.99,,,-99.99,,2013-04-16 06:22:00,
2013-04-16 02:32:00,49.0,48.0,29.85,West,280,5.0,-999.0,96,-99.99,,,-99.99,,2013-04-16 06:32:00,
2013-04-16 02:42:00,49.0,48.0,29.85,West,280,5.0,-999.0,96,-99.99,,,-99.99,,2013-04-16 06:42:00,
2013-04-16 02:52:00,49.0,48.0,29.85,West,264,7.0,-999.0,95,-99.99,,,-99.99,,2013-04-16 06:52:00,
2013-04-16 03:02:00,48.0,47.0,29.85,West,269,4.0,-999.0,96,-99.99,,,-99.99,,2013-04-16 07:02:00,
2013-04-16 03:12:00,48.0,47.0,29.85,West,269,4.0,-999.0,96,-99.99,,,-99.99,,2013-04-16 07:12:00,
2013-04-16 03:22:00,48.0,47.0,29.85,WSW,245,6.0,-999.0,96,-99.99,,,-99.99,,2013-04-16 07:22:00,
2013-04-16 03:32:00,47.0,46.0,29.85,West,262,7.0,-999.0,96,-99.99,,,-99.99,,2013-04-16 07:32:00,
2013-04-16 03:42:00,47.0,46.0,29.85,West,262,7.0,-999.0,96,-99.99,,,-99.99,,2013-04-16 07:42:00,
2013-04-16 03:53:00,47.0,46.0,29.84,SW,229,6.0,-999.0,96,-99.99,,,-99.99,,2013-04-16 07:53:00,
2013-04-16 04:02:00,47.0,46.0,29.85,WSW,240,6.0,-999.0,96,-99.99,,,-99.99,,2013-04-16 08:02:00,
2013-04-16 04:12:00,47.0,46.0,29.85,WSW,240,6.0,-999.0,96,-99.99,,,-99.99,,2013-04-16 08:12:00,
2013-04-16 04:22:00,47.0,46.0,29.85,WSW,244,5.0,-999.0,96,-99.99,,,-99.99,,2013-04-16 08:22:00,
2013-04-16 04:32:00,47.0,46.0,29.86,SW,236,5.0,-999.0,96,-99.99,,,-99.99,,2013-04-16 08:32:00,
2013-04-16 04:42:00,47.0,46.0,29.86,SW,236,5.0,-999.0,96,-99.99,,,-99.99,,2013-04-16 08:42:00,
2013-04-16 04:52:00,47.0,46.0,29.86,WSW,258,5.0,-999.0,96,-99.99,,,-99.99,,2013-04-16 08:52:00,
2013-04-16 05:02:00,47.0,46.0,29.86,WSW,255,5.0,-999.0,96,-99.99,,,-99.99,,2013-04-16 09:02:00,
2013-04-16 05:12:00,47.0,46.0,29.86,WSW,255,5.0,-999.0,96,-99.99,,,-99.99,,2013-04-16 09:12:00,
2013-04-16 05:22:00,47.0,46.0,29.87,WSW,256,5.0,-999.0,96,-99.99,,,-99.99,,2013-04-16 09:22:00,
2013-04-16 05:33:00,47.0,46.0,29.87,West,273,4.0,-999.0,96,-99.99,,,-99.99,,2013-04-16 09:33:00,
2013-04-16 05:43:00,47.0,46.0,29.87,West,273,4.0,-999.0,96,-99.99,,,-99.99,,2013-04-16 09:43:00,
2013-04-16 05:52:00,47.0,46.0,29.87,West,270,5.0,-999.0,95,-99.99,,,-99.99,,2013-04-16 09:52:00,
2013-04-16 06:03:00,46.0,45.0,29.88,West,281,6.0,-999.0,95,-99.99,,,-99.99,,2013-04-16 10:03:00,
2013-04-16 06:13:00,46.0,45.0,29.88,West,281,6.0,-999.0,95,-99.99,,,-99.99,,2013-04-16 10:13:00,
2013-04-16 06:23:00,46.0,44.0,29.89,West,281,7.0,-999.0,94,-99.99,,,-99.99,,2013-04-16 10:23:00,
2013-04-16 06:33:00,46.0,44.0,29.90,West,271,6.0,-999.0,93,-99.99,,,-99.99,,2013-04-16 10:33:00,
2013-04-16 06:42:00,46.0,44.0,29.90,West,271,6.0,-999.0,93,-99.99,,,-99.99,,2013-04-16 10:42:00,
2013-04-16 06:52:00,45.0,43.0,29.91,West,280,5.0,-999.0,92,-99.99,,,-99.99,,2013-04-16 10:52:00,
2013-04-16 07:03:00,45.0,43.0,29.91,WNW,290,5.0,-999.0,92,-99.99,,,-99.99,,2013-04-16 11:03:00,
2013-04-16 07:12:00,45.0,43.0,29.91,WNW,290,5.0,-999.0,92,-99.99,,,-99.99,,2013-04-16 11:12:00,
2013-04-16 07:22:00,45.0,42.0,29.91,NW,326,10.0,-999.0,90,-99.99,,,-99.99,,2013-04-16 11:22:00,
2013-04-16 07:32:00,43.0,40.0,29.92,NW,316,10.0,-999.0,89,-99.99,,,-99.99,,2013-04-16 11:32:00,
2013-04-16 07:42:00,43.0,40.0,29.92,NW,316,10.0,-999.0,89,-99.99,,,-99.99,,2013-04-16 11:42:00,
2013-04-16 07:52:00,43.0,38.0,29.93,NW,324,10.0,-999.0,84,-99.99,,,-99.99,,2013-04-16 11:52:00,
2013-04-16 08:02:00,43.0,39.0,29.93,NW,316,8.0,-999.0,85,-99.99,,,-99.99,,2013-04-16 12:02:00,
2013-04-16 08:12:00,43.0,39.0,29.93,NW,316,8.0,-999.0,85,-99.99,,,-99.99,,2013-04-16 12:12:00,
2013-04-16 08:22:00,42.0,37.0,29.94,WNW,289,6.0,-999.0,82,-99.99,,,-99.99,,2013-04-16 12:22:00,
2013-04-16 08:32:00,42.0,36.0,29.95,NW,313,7.0,-999.0,80,-99.99,,,-99.99,,2013-04-16 12:32:00,
2013-04-16 08:42:00,42.0,36.0,29.95,NW,313,7.0,-999.0,80,-99.99,,,-99.99,,2013-04-16 12:42:00,
2013-04-16 08:52:00,43.0,38.0,29.96,West,267,4.0,-999.0,81,-99.99,,,-99.99,,2013-04-16 12:52:00,
2013-04-16 09:02:00,43.0,36.0,29.96,West,275,6.0,-999.0,76,-99.99,,,-99.99,,2013-04-16 13:02:00,
2013-04-16 09:12:00,43.0,36.0,29.96,West,275,6.0,-999.0,76,-99.99,,,-99.99,,2013-04-16 13:12:00,
2013-04-16 09:22:00,43.0,36.0,29.96,West,281,6.0,-999.0,76,-99.99,,,-99.99,,2013-04-16 13:22:00,
2013-04-16 09:32:00,44.0,37.0,29.96,WNW,285,6.0,-999.0,76,-99.99,,,-99.99,,2013-04-16 13:32:00,
2013-04-16 09:42:00,44.0,37.0,29.96,WNW,285,6.0,-999.0,76,-99.99,,,-99.99,,2013-04-16 13:42:00,
2013-04-16 09:52:00,44.0,36.0,29.97,WNW,288,7.0,-999.0,74,-99.99,,,-99.99,,2013-04-16 13:52:00,
2013-04-16 10:02:00,45.0,38.0,29.96,WSW,257,7.0,-999.0,75,-99.99,,,-99.99,,2013-04-16 14:02:00,
2013-04-16 10:12:00,45.0,38.0,29.96,WSW,257,7.0,-999.0,75,-99.99,,,-99.99,,2013-04-16 14:12:00,
2013-04-16 10:22:00,45.0,38.0,29.97,West,271,7.0,-999.0,75,-99.99,,,-99.99,,2013-04-16 14:22:00,
2013-04-16 10:32:00,46.0,38.0,29.98,West,275,7.0,-999.0,73,-99.99,,,-99.99,,2013-04-16 14:32:00,
2013-04-16 10:42:00,46.0,38.0,29.98,West,275,7.0,-999.0,73,-99.99,,,-99.99,,2013-04-16 14:42:00,
2013-04-16 10:52:00,46.0,36.0,29.99,SW,233,8.0,-999.0,69,-99.99,,,-99.99,,2013-04-16 14:52:00,
2013-04-16 11:02:00,47.0,38.0,29.99,WSW,250,8.0,-999.0,70,-99.99,,,-99.99,,2013-04-16 15:02:00,
2013-04-16 11:12:00,47.0,38.0,29.99,WSW,250,8.0,-999.0,70,-99.99,,,-99.99,,2013-04-16 15:12:00,
2013-04-16 11:22:00,47.0,38.0,29.99,West,259,9.0,-999.0,70,-99.99,,,-99.99,,2013-04-16 15:22:00,
2013-04-16 11:33:00,47.0,37.0,29.99,WSW,255,9.0,-999.0,68,-99.99,,,-99.99,,2013-04-16 15:33:00,
2013-04-16 11:43:00,47.0,37.0,29.99,WSW,255,9.0,-999.0,68,-99.99,,,-99.99,,2013-04-16 15:43:00,
2013-04-16 11:53:00,48.0,38.0,30.00,SW,235,9.0,-999.0,68,-99.99,,,-99.99,,2013-04-16 15:53:00,
2013-04-16 12:03:00,48.0,38.0,30.01,West,272,10.0,-999.0,67,-99.99,,,-99.99,,2013-04-16 16:03:00,
2013-04-16 12:13:00,48.0,38.0,30.01,West,272,10.0,-999.0,67,-99.99,,,-99.99,,2013-04-16 16:13:00,
2013-04-16 12:23:00,49.0,39.0,30.01,WSW,258,10.0,-999.0,67,-99.99,,,-99.99,,2013-04-16 16:23:00,
2013-04-16 12:32:00,49.0,38.0,30.01,WNW,283,11.0,-999.0,65,-99.99,,,-99.99,,2013-04-16 16:32:00,
2013-04-16 12:42:00,49.0,38.0,30.01,WNW,283,11.0,-999.0,65,-99.99,,,-99.99,,2013-04-16 16:42:00,
2013-04-16 12:52:00,50.0,38.0,30.01,WSW,250,10.0,-999.0,63,-99.99,,,-99.99,,2013-04-16 16:52:00,
2013-04-16 13:02:00,50.0,39.0,30.01,SW,223,9.0,-999.0,65,-99.99,,,-99.99,,2013-04-16 17:02:00,
2013-04-16 13:12:00,50.0,39.0,30.01,SW,223,9.0,-999.0,65,-99.99,,,-99.99,,2013-04-16 17:12:00,
2013-04-16 13:22:00,50.0,38.0,30.02,WNW,282,11.0,-999.0,63,-99.99,,,-99.99,,2013-04-16 17:22:00,
2013-04-16 13:32:00,51.0,39.0,30.02,West,270,9.0,-999.0,63,-99.99,,,-99.99,,2013-04-16 17:32:00,
2013-04-16 13:43:00,51.0,39.0,30.02,West,270,9.0,-999.0,63,-99.99,,,-99.99,,2013-04-16 17:43:00,
2013-04-16 13:53:00,51.0,37.0,30.02,West,265,9.0,-999.0,59,-99.99,,,-99.99,,2013-04-16 17:53:00,
2013-04-16 14:02:00,52.0,38.0,30.01,SW,233,9.0,-999.0,58,-99.99,,,-99.99,,2013-04-16 18:02:00,
2013-04-16 14:12:00,52.0,38.0,30.01,SW,233,9.0,-999.0,58,-99.99,,,-99.99,,2013-04-16 18:12:00,
2013-04-16 14:22:00,52.0,38.0,30.01,WSW,248,8.0,-999.0,58,-99.99,,,-99.99,,2013-04-16 18:22:00,
2013-04-16 14:32:00,52.0,38.0,30.01,WSW,254,8.0,-999.0,58,-99.99,,,-99.99,,2013-04-16 18:32:00,
2013-04-16 14:42:00,52.0,38.0,30.01,WSW,254,8.0,-999.0,58,-99.99,,,-99.99,,2013-04-16 18:42:00,
2013-04-16 14:52:00,53.0,38.0,30.02,SW,217,8.0,-999.0,57,-99.99,,,-99.99,,2013-04-16 18:52:00,
2013-04-16 15:02:00,53.0,39.0,30.02,WNW,285,8.0,-999.0,58,-99.99,,,-99.99,,2013-04-16 19:02:00,
2013-04-16 15:12:00,53.0,39.0,30.02,WNW,285,8.0,-999.0,58,-99.99,,,-99.99,,2013-04-16 19:12:00,
2013-04-16 15:22:00,53.0,35.0,30.03,West,269,11.0,-999.0,51,-99.99,,,-99.99,,2013-04-16 19:22:00,
2013-04-16 15:32:00,55.0,39.0,30.03,WSW,245,9.0,-999.0,54,-99.99,,,-99.99,,2013-04-16 19:32:00,
2013-04-16 15:42:00,55.0,39.0,30.03,WSW,245,9.0,-999.0,54,-99.99,,,-99.99,,2013-04-16 19:42:00,
2013-04-16 15:52:00,55.0,37.0,30.04,SW,227,8.0,-999.0,51,-99.99,,,-99.99,,2013-04-16 19:52:00,
2013-04-16 16:02:00,55.0,37.0,30.05,West,271,10.0,-999.0,51,-99.99,,,-99.99,,2013-04-16 20:02:00,
2013-04-16 16:12:00,55.0,37.0,30.05,West,271,10.0,-999.0,51,-99.99,,,-99.99,,2013-04-16 20:12:00,
2013-04-16 16:22:00,56.0,36.0,30.04,WNW,284,8.0,-999.0,47,-99.99,,,-99.99,,2013-04-16 20:22:00,
2013-04-16 16:32:00,55.0,37.0,30.05,WNW,292,9.0,-999.0,51,-99.99,,,-99.99,,2013-04-16 20:32:00,
2013-04-16 16:42:00,55.0,37.0,30.05,WNW,292,9.0,-999.0,51,-99.99,,,-99.99,,2013-04-16 20:42:00,
2013-04-16 16:52:00,56.0,37.0,30.06,WNW,300,9.0,-999.0,49,-99.99,,,-99.99,,2013-04-16 20:52:00,
2013-04-16 17:02:00,56.0,38.0,30.06,WNW,283,8.0,-999.0,50,-99.99,,,-99.99,,2013-04-16 21:02:00,
2013-04-16 17:12:00,56.0,38.0,30.06,WNW,283,8.0,-999.0,50,-99.99,,,-99.99,,2013-04-16 21:12:00,
2013-04-16 17:22:00,56.0,38.0,30.06,WNW,283,8.0,-999.0,50,-99.99,,,-99.99,,2013-04-16 21:22:00,
2013-04-16 17:33:00,55.0,35.0,30.07,NW,304,9.0,-999.0,46,-99.99,,,-99.99,,2013-04-16 21:33:00,
2013-04-16 17:43:00,55.0,35.0,30.07,NW,304,9.0,-999.0,46,-99.99,,,-99.99,,2013-04-16 21:43:00,
2013-04-16 17:53:00,55.0,35.0,30.08,WNW,292,10.0,-999.0,46,-99.99,,,-99.99,,2013-04-16 21:53:00,
2013-04-16 18:03:00,55.0,36.0,30.08,WNW,287,9.0,-999.0,48,-99.99,,,-99.99,,2013-04-16 22:03:00,
2013-04-16 18:13:00,55.0,36.0,30.08,WNW,287,9.0,-999.0,48,-99.99,,,-99.99,,2013-04-16 22:13:00,
2013-04-16 18:22:00,55.0,35.0,30.09,NW,313,10.0,-999.0,47,-99.99,,,-99.99,,2013-04-16 22:22:00,
2013-04-16 18:33:00,55.0,35.0,30.09,WNW,297,12.0,-999.0,47,-99.99,,,-99.99,,2013-04-16 22:33:00,
2013-04-16 18:43:00,55.0,35.0,30.09,WNW,297,12.0,-999.0,47,-99.99,,,-99.99,,2013-04-16 22:43:00,
2013-04-16 18:52:00,55.0,35.0,30.10,NW,325,11.0,-999.0,46,-99.99,,,-99.99,,2013-04-16 22:52:00,
2013-04-16 19:02:00,55.0,34.0,30.11,WNW,293,9.0,-999.0,45,-99.99,,,-99.99,,2013-04-16 23:02:00,
2013-04-16 19:12:00,55.0,34.0,30.11,WNW,293,9.0,-999.0,45,-99.99,,,-99.99,,2013-04-16 23:12:00,
2013-04-16 19:22:00,55.0,33.0,30.11,WNW,299,7.0,-999.0,44,-99.99,,,-99.99,,2013-04-16 23:22:00,
2013-04-16 19:32:00,54.0,35.0,30.13,NW,317,8.0,-999.0,49,-99.99,,,-99.99,,2013-04-16 23:32:00,
2013-04-16 19:43:00,54.0,35.0,30.13,NW,317,8.0,-999.0,49,-99.99,,,-99.99,,2013-04-16 23:43:00,
2013-04-16 19:52:00,53.0,35.0,30.13,NNW,336,9.0,-999.0,50,-99.99,,,-99.99,,2013-04-16 23:52:00,
2013-04-16 20:02:00,53.0,34.0,30.13,NW,310,8.0,-999.0,49,-99.99,,,-99.99,,2013-04-17 00:02:00,
2013-04-16 20:12:00,53.0,34.0,30.13,NW,310,8.0,-999.0,49,-99.99,,,-99.99,,2013-04-17 00:12:00,
2013-04-16 20:22:00,52.0,35.0,30.14,North,355,8.0,-999.0,53,-99.99,,,-99.99,,2013-04-17 00:22:00,
2013-04-16 20:32:00,51.0,37.0,30.14,NNE,15,10.0,-999.0,58,-99.99,,,-99.99,,2013-04-17 00:32:00,
2013-04-16 20:42:00,51.0,37.0,30.14,NNE,15,10.0,-999.0,58,-99.99,,,-99.99,,2013-04-17 00:42:00,
2013-04-16 20:52:00,43.0,38.0,30.15,NNE,30,12.0,-999.0,81,-99.99,,,-99.99,,2013-04-17 00:52:00,
2013-04-16 21:02:00,43.0,38.0,30.16,NNE,22,10.0,-999.0,83,-99.99,,,-99.99,,2013-04-17 01:02:00,
2013-04-16 21:12:00,43.0,38.0,30.16,NNE,22,10.0,-999.0,83,-99.99,,,-99.99,,2013-04-17 01:12:00,
2013-04-16 21:22:00,43.0,38.0,30.17,NNE,27,11.0,-999.0,81,-99.99,,,-99.99,,2013-04-17 01:22:00,
2013-04-16 21:32:00,42.0,38.0,30.18,NNE,24,10.0,-999.0,84,-99.99,,,-99.99,,2013-04-17 01:32:00,
2013-04-16 21:42:00,42.0,38.0,30.18,NNE,24,10.0,-999.0,84,-99.99,,,-99.99,,2013-04-17 01:42:00,
2013-04-16 21:52:00,42.0,38.0,30.19,NNE,16,9.0,-999.0,84,-99.99,,,-99.99,,2013-04-17 01:52:00,
2013-04-16 22:02:00,42.0,38.0,30.20,NNE,28,9.0,-999.0,84,-99.99,,,-99.99,,2013-04-17 02:02:00,
2013-04-16 22:12:00,42.0,38.0,30.20,NNE,28,9.0,-999.0,84,-99.99,,,-99.99,,2013-04-17 02:12:00,
2013-04-16 22:22:00,42.0,38.0,30.21,North,11,10.0,-999.0,84,-99.99,,,-99.99,,2013-04-17 02:22:00,
2013-04-16 22:32:00,42.0,37.0,30.22,NNE,14,10.0,-999.0,82,-99.99,,,-99.99,,2013-04-17 02:32:00,
2013-04-16 22:42:00,42.0,37.0,30.22,NNE,14,10.0,-999.0,82,-99.99,,,-99.99,,2013-04-17 02:42:00,
2013-04-16 22:52:00,42.0,37.0,30.22,NNE,13,10.0,-999.0,81,-99.99,,,-99.99,,2013-04-17 02:52:00,
2013-04-16 23:02:00,42.0,37.0,30.23,NNE,22,9.0,-999.0,81,-99.99,,,-99.99,,2013-04-17 03:02:00,
2013-04-16 23:12:00,42.0,37.0,30.23,NNE,22,9.0,-999.0,81,-99.99,,,-99.99,,2013-04-17 03:12:00,
2013-04-16 23:22:00,41.0,35.0,30.23,NNE,17,11.0,-999.0,80,-99.99,,,-99.99,,2013-04-17 03:22:00,
2013-04-16 23:33:00,41.0,36.0,30.23,NE,34,11.0,-999.0,81,-99.99,,,-99.99,,2013-04-17 03:33:00,
2013-04-16 23:42:00,41.0,36.0,30.23,NE,34,11.0,-999.0,81,-99.99,,,-99.99,,2013-04-17 03:42:00,
2013-04-16 23:53:00,41.0,35.0,30.24,ENE,61,8.0,-999.0,80,-99.99,,,-99.99,,2013-04-17 03:53:00,